www.pogodaiklimat.ru

Погода и климат >> Архив погоды >> Россия >> Якутия >> Анабар


ПОГОДА в Анабаре

  • Прогноз погоды в Анабаре
  • Монитор погоды в Анабаре

АРХИВ ПОГОДЫ в Анабаре

Время (UTC), дата Ветер
(напр.,м/с)
 
Видим.   Явления Облачность Т
(С)
Тd
(С)
f
(%)
Тe
(С)
Тes
(С)
Комфортность P
(гПа)
Po
(гПа)
Тmin
(С)
Tmax
(С)
R
(мм)
R24
(мм)
S
(см)
15 15.09 В 8
{10}
4000 м дождь 10/10 300 м
[Frnb]
+3.0 +2.8 99 -4 -4 1012.3 1010.7
18 15.09 В 8
{10}
4000 м дождь 10/10 300 м
[Frnb]
+3.0 +2.8 99 -4 -4 1013.0 1011.4
21 15.09 В 8
{10}
20 км дождь 10/10 300 м
[Frnb]
+3.0 +2.8 99 -4 -4 1014.0 1012.4
00 16.09 штиль 0
{10}
50 км дождь ?/? +3.0 +2.8 99 +2 +2 1015.0 1013.4 +2.7 7
03 16.09 В 5 20 км 8/8 300 м
[Cu Sc]
+4.2 +3.5 95 -1 -1 1014.9 1013.3
06 16.09 В 7 20 км 8/8 300 м
[Cu Sc]
+5.0 +3.8 92 -1 -1 1015.3 1013.7
09 16.09 С 7 20 км 9/9 300 м
[Sc]
+5.2 +4.7 97 -1 -1 1015.4 1013.8
12 16.09 С 5 20 км 10/10 300 м
[Sc]
+3.2 +3.0 99 -2 -2 1015.6 1013.9 +5.6
15 16.09 С 4 10 км слаб. морось 10/10 300 м
[St]
+2.6 +2.3 98 -2 -2 1015.2 1013.5
18 16.09 С 4 20 км {морось} 10/10 300 м
[St]
+2.5 +2.2 98 -3 -3 1014.7 1013.0
21 16.09 С 5 10 км слаб. морось 10/10 300 м
[St]
+2.1 +1.8 98 -4 -4 1014.2 1012.5
00 17.09 С 5 20 км {морось} 10/10 300 м
[Sc]
+1.8 +1.5 98 -4 -4 1014.7 1013.0 +1.5 1
03 17.09 С 5 20 км 10/10 300 м
[Sc]
+3.0 +2.8 99 -3 -3 1015.2 1013.6
06 17.09 С 4 20 км 8/6 300 м
[Sc Ac trans]
+3.2 +2.2 93 -2 -1 1016.4 1014.8
09 17.09 С 4 20 км 9/9 300 м
[Sc]
+3.0 +2.5 97 -2 -2 1018.0 1016.4
12 17.09 С 3 20 км 6/6 300 м
[Sc]
+1.9 +1.6 98 -3 -3 1019.5 1017.8 +3.5
15 17.09 С 2 20 км 10/0
[As op]
+2.5 +1.7 94 -1 -1 1020.5 1018.8
18 17.09 С 2 20 км 10/0
[As op]
+1.9 +1.6 98 -2 -2 1021.3 1019.6
21 17.09 С 2 20 км 10/0
[As op]
+1.8 +1.5 98 -2 -2 1021.7 1020.0
00 18.09 С 3 20 км 10/0
[As op]
+1.9 +1.6 98 -3 -3 1022.1 1020.4 +1.0
03 18.09 Ю 5 20 км 10/0
[As op]
+1.5 +1.2 98 -4 -4 1021.8 1020.1
06 18.09 Ю 4 20 км 10/0
[As op]
+1.7 +1.2 96 -4 -3 1021.4 1019.7
09 18.09 В 4 20 км 10/10 300 м
[St]
+1.4 +1.1 98 -4 -4 1020.6 1018.9
12 18.09 В 5 20 км 8/4 300 м
[Cu Sc Cs]
+1.8 +1.5 98 -4 -4 1019.8 1018.1 +2.6
15 18.09 В 6 20 км 6/6 300 м
[Cu Sc]
0.0 -0.3 98 -7 -7 1018.8 1017.1
18 18.09 В 6 20 км 6/6 300 м
[Cu Sc]
-0.6 -0.9 98 -8 -8 1018.4 1016.7
21 18.09 В 6 20 км 10/10 300 м
[Sc]
0.0 -0.3 98 -7 -7 1017.1 1015.4
00 19.09 В 5 20 км 10/10 300 м
[Sc]
+1.0 +0.7 98 -5 -5 1016.3 1014.6 -1.1
03 19.09 В 6 20 км 10/10 300 м
[Sc]
+1.5 +1.2 98 -5 -5 1015.3 1013.6
06 19.09 ЮВ 5 20 км 10/10 300 м
[Sc]
+3.8 +3.3 97 -2 -2 1014.4 1012.7
09 19.09 ЮВ 4 20 км 10/10 300 м
[Sc]
+3.8 +3.6 99 -1 -1 1014.4 1012.7
12 19.09 ЮВ 3 20 км 10/10 300 м
[Sc]
+3.5 +3.3 99 -1 -1 1014.2 1012.5 +5.0
18 19.09 ЮВ 4 20 км 10/10 300 м
[St]
+3.2 +3.0 99 -2 -2 1012.8 1011.2
21 19.09 ЮВ 4 20 км 10/10 300 м
[Sc]
+3.0 +2.8 99 -2 -2 1012.4 1010.8
00 20.09 ЮВ 3 20 км 10/3 300 м
[Sc As op]
+2.0 +1.7 98 -3 -3 1011.7 1010.0 +1.5
03 20.09 Ю 4 20 км 10/10 300 м
[Sc]
+2.2 +1.7 96 -3 -3 1010.5 1008.8
06 20.09 Ю 4 20 км 10/10 300 м
[Sc]
+2.7 +1.4 91 -2 -2 1009.6 1008.0
09 20.09 Ю 6 10 км слаб. морось 10/10 300 м
[St]
+2.1 +1.8 98 -4 -4 1009.1 1007.4
12 20.09 Ю 7 4000 м дымка 10/10 300 м
[St]
+1.4 +1.1 98 -6 -6 1009.4 1007.7 +4.0 0.7
15 20.09 Ю 6 20 км 10/10 300 м
[Sc]
+2.0 +1.7 98 -4 -4 1009.1 1007.4
18 20.09 Ю 6 20 км 10/10 300 м
[Sc]
+1.1 +0.8 98 -5 -5 1008.1 1006.4
21 20.09 Ю 7 20 км 10/10 300 м
[Sc]
+1.9 +1.4 96 -5 -5 1006.8 1005.1
00 21.09 В 7 20 км 8/4 300 м
[Cu Sc Cs]
+1.6 +1.1 96 -5 -5 1004.3 1002.6 +0.9
03 21.09 В 12-13
{14}
20 км 9/9 300 м
[Sc]
+2.2 +1.7 96 -6 -6 1001.6 1000.0
06 21.09 ЮВ 12-13
{14}
20 км 10/0
[As op]
+4.0 +2.2 88 -3 -3 997.5 995.9
09 21.09 ЮВ 15-16
{17}
20 км 10/0
[As op]
+4.5 +2.3 86 -3 -3 994.1 992.5
12 21.09 ЮВ 14-15
{16}
4000 м слаб. ливневой дождь 10/10 300 м
[Cb cap]
+2.5 +2.2 98 -6 -6 993.0 991.4 +5.2 0.5
15 21.09 ЮВ 14-15
{16}
4000 м слаб. ливневой дождь со снегом 10/10 300 м
[Cb cap]
+1.0 +0.7 98 -8 -8 991.0 989.4
18 21.09 В 12-13
{14}
4000 м слаб. ливневой дождь 10/10 300 м
[Cb cap]
+2.2 +1.9 98 -6 -6 999.9 998.3
21 21.09 Ю 11-12
{13}
20 км {ливн. осадки} 10/0
[As op]
+1.6 +1.3 98 -7 -7 999.8 998.2
00 22.09 ЮВ 7 20 км слаб. морось 10/10 300 м
[St]
+2.2 +1.9 98 -4 -4 990.6 989.0 +0.8
03 22.09 В 6 4000 м дымка 10/10 300 м
[St]
+3.0 +2.8 99 -3 -3 991.1 989.5
06 22.09 Ю 5 4000 м дымка {туман} 10/10 300 м
[St]
+4.4 +4.2 99 -1 -1 993.0 991.4
09 22.09 С 3 10 км слаб. морось 10/10 300 м
[St]
+5.1 +4.9 99 +1 +1 995.3 993.7
12 22.09 С 6 20 км {морось} 10/10 300 м
[Sc]
+3.4 +3.2 99 -3 -3 998.0 996.4 +6.0 0.4

 

Местоположение метеостанции Анабар (Якутия, Россия): широта 73.22 долгота 113.50 высота над уровнем моря 13 м.

В архиве по умолчанию представлена погода в Анабаре за последнюю неделю. Архивные данные за месяц целиком и за предыдущие месяцы, начиная с января 2011 года, Вы можете получить, выбрав интересующий диапазон дат из раскрывающегося списка и нажав кнопку "Ввод!".


*Определитесь, кто Вы:
робот инопланетянин человек

Внимание! Время в таблицах - всемирное. Для получения местного времени необходимо прибавить поправку, которая равна 9 ч.

Смотрите также архив погоды в соседних городах и на ближайших метеорологических станциях:

Погода в Саскылахе (Якутия, Россия) (140 км)
Погода на Острове Преображения (Якутия, Россия) (162 км)
Погода на Усть-Оленеке (Якутия, Россия) (205 км)
Погода в Джалинде (Якутия, Россия) (344 км)
Погода в Тюмяти (Якутия, Россия) (363 км)
Погода в Хатанге (Красноярский край, Россия) (391 км)
Погода на Столб Острове (Якутия, Россия) (430 км)
Погода в Оленеке (Якутия, Россия) (526 км)
Погода на Мысе Быков (Якутия, Россия) (534 км)
Погода в Сухане (Якутия, Россия) (540 км)

Пояснения к столбцам:

Ветер - указаны скорость ветра в м/с - средняя за 10 мин, порывы в срок и между сроками (в фигурных скобках) и направление, откуда дует ветер: С - северный, СВ - северо-восточный, В - восточный, ЮВ - юго-восточный, Ю - южный, ЮЗ - юго-западный, З - западный, СЗ - северо-западный.
Видимость - горизонтальная дальность видимости в метрах или километрах. При видимости от 1 до 10 км при отсутствии осадков обычно наблюдается дымка, при ухудшении видимости до 1 км и менее - туман. В сухую погоду видимость может ухудшаться дымом, пылью или мглою.
Явления - указаны атмосферные явления, наблюдавшиеся в срок или в последний час перед сроком; фигурными скобками обозначены явления, наблюдавшиеся между сроками (за 1-3 часа до срока); квадратными скобками обозначены град или гололедные отложения с указанием их диаметра в мм.
Облачность - указаны через наклонную черту общая и нижняя облачность в баллах и высота нижней границы облаков в метрах; квадратными скобками обозначены формы облаков: Ci - перистые, Cs - перисто-слоистые, Cc - перисто-кучевые, Ac - высококучевые, As - высокослоистые, Sc - слоисто-кучевые, Ns - слоисто-дождевые, Cu - кучевые, Cb - кучево-дождевые. Подробнее классификацию облаков см. в Атласе облаков (PDF).
T - Температура воздуха - температура, измеренная на высоте 2 м над землей.
Td - Температура точки росы - температура, при понижении до которой содержащийся в воздухе водяной пар достигнет насыщения.
f - Относительная влажность воздуха - влажноcть воздуха, измеренная на высоте 2 м над землей.
Te - Эффективная температура - температура, которую ощущает одетый по сезону человек в тени. Характеристика душности погоды. При расчете учитывается влияние влажности воздуха и скорости ветра на теплоощущения человека.
Tes - Эффективная температура на солнце - температура, которую ощущает человек, с поправкой на солнечный нагрев. Характеристика знойности погоды. Зависит от высоты солнца над горизонтом, облачности и скорости ветра. Ночью, в пасмурную погоду, а также при ветре 12 м/с и более поправка равна нулю.
P - Атмосферное давление - приведенное к уровню моря атмосферное давление.
Po - Атмосферное давление - измеренное на уровне метеостанции атмосферное давление.
Tmin - Минимальная температура - минимум температуры воздуха на высоте 2 м над землей.
Tmax - Максимальная температура - максимум температуры воздуха на высоте 2 м над землей.
R - Количество осадков - Количество выпавших осадков за период времени, мм. При наведении курсора мыши на число - период времени, за который выпало указанное количество осадков.
R24 - Количество осадков - Количество выпавших осадков за 24 часа, мм.
S - Снежный покров - Высота снежного покрова, см. При наведении курсора мыши на число - состояние снежного покрова и степень покрытия местности в баллах.